(230) Athamantis
ephemeris date magn radius delta ra dec elong phase
Opposition2 Jul 202510.52.392 AU1.386 AU18h46m-12°04'169.0°4.6°
Today7 Jul 202510.52.389 AU1.385 AU18h42m-11°54'168.1°5.0°
(230) Athamantis - 2025-07-07
astro.vanbuitenen.nl


 
-1 year
-1 month
-1 day
Now
+1 day
+1 month
+1 year

The interactive orbit chart above shows the body's path through the solar system and its position at the given date. Green and blue lines are shown perpendicular to the ecliptic plane: Green if the path is above the ecliptic plane, blue if it is below. (Left-click and drag to rotate the view; Right-click and drag to move the view; Use scroll wheel to zoom in our out.)

The orbital elements of Athamantis are:

            e (Eccentricity)                : 0.0611874
            a (Semimajor axis)              : 2.3825833
            i (Inclination)                 : 9.45497
            Ω (Longitude of ascending node) : 239.77081
            ω (Argument of perihelion)      : 139.09055
            M (Mean anomaly)                : 254.03342
            Epoch                           : 2025 May 05

            L (Longitude of perihelion)     : 199.24883
            B (Latitude of perihelion)      : 6.17562
            P (Orbital period in years)     : 3.68            
        

The light curve chart below shows the estimated development of the minor planet's magnitude.


The all-sky chart below shows the path of the minor planet over the same period as the light curve. The current position is marked yellow.





The following chart shows the path of the minor planet in the next few days. The field of view is optimized for (~10x50) binoculars and finderscopes. A more printer-friendly version of the same chart can be found below.




Ephemerides:
Date       Time       RA (2000)    DEC (2000)    delta   radius  elong  phase   PA    magn
2025-07-07 00:00 UT   18 42 25.0   -11 54 39     1.385    2.389  168.1    5.0   155   10.5 
2025-07-07 02:45 UT   18 42 18.1   -11 54 26     1.385    2.389  168.0    5.1   154   10.5 
2025-07-08 00:00 UT   18 41 24.7   -11 52 47     1.386    2.388  167.6    5.3   150   10.5 
2025-07-09 00:00 UT   18 40 24.7   -11 51 02     1.386    2.388  167.0    5.5   145   10.5 
2025-07-10 00:00 UT   18 39 25.2   -11 49 23     1.387    2.387  166.3    5.8   141   10.6 
2025-07-11 00:00 UT   18 38 26.2   -11 47 51     1.389    2.386  165.6    6.1   137   10.6 
2025-07-12 00:00 UT   18 37 27.7   -11 46 25     1.390    2.386  164.8    6.4   134   10.6 
2025-07-13 00:00 UT   18 36 29.9   -11 45 06     1.392    2.385  163.9    6.8   131   10.6 
2025-07-14 00:00 UT   18 35 32.8   -11 43 53     1.394    2.384  163.1    7.1   128   10.6 
2025-07-15 00:00 UT   18 34 36.5   -11 42 47     1.396    2.384  162.1    7.5   126   10.7 
2025-07-16 00:00 UT   18 33 41.0   -11 41 47     1.398    2.383  161.2    7.9   123   10.7 
2025-07-17 00:00 UT   18 32 46.5   -11 40 54     1.401    2.382  160.3    8.3   121   10.7 
2025-07-18 00:00 UT   18 31 52.9   -11 40 07     1.404    2.382  159.3    8.7   119   10.7 
2025-07-19 00:00 UT   18 31 00.3   -11 39 26     1.407    2.381  158.3    9.1   118   10.7 
2025-07-20 00:00 UT   18 30 08.8   -11 38 52     1.410    2.380  157.3    9.5   116   10.8 
2025-07-21 00:00 UT   18 29 18.5   -11 38 24     1.414    2.380  156.3    9.9   115   10.8 
2025-07-22 00:00 UT   18 28 29.3   -11 38 02     1.418    2.379  155.3   10.3   114   10.8 
2025-07-23 00:00 UT   18 27 41.5   -11 37 47     1.422    2.378  154.2   10.7   112   10.8 
2025-07-24 00:00 UT   18 26 55.0   -11 37 37     1.426    2.378  153.2   11.1   111   10.8 
2025-07-25 00:00 UT   18 26 09.9   -11 37 34     1.431    2.377  152.2   11.5   110   10.9 
2025-07-26 00:00 UT   18 25 26.2   -11 37 36     1.436    2.376  151.2   11.9   109   10.9 
2025-07-27 00:00 UT   18 24 43.9   -11 37 44     1.440    2.376  150.1   12.3   109   10.9 
2025-07-28 00:00 UT   18 24 03.2   -11 37 57     1.446    2.375  149.1   12.7   108   10.9 
2025-07-29 00:00 UT   18 23 24.1   -11 38 16     1.451    2.374  148.1   13.1   107   11.0 
2025-07-30 00:00 UT   18 22 46.5   -11 38 41     1.457    2.373  147.0   13.5   106   11.0 
2025-07-31 00:00 UT   18 22 10.6   -11 39 10     1.462    2.373  146.0   13.8   106   11.0 
2025-08-01 00:00 UT   18 21 36.4   -11 39 45     1.468    2.372  145.0   14.2   105   11.0 
2025-08-02 00:00 UT   18 21 03.8   -11 40 24     1.475    2.371  143.9   14.6   104   11.0 
2025-08-03 00:00 UT   18 20 33.0   -11 41 08     1.481    2.371  142.9   15.0   104   11.1 
2025-08-04 00:00 UT   18 20 03.9   -11 41 57     1.487    2.370  141.9   15.3   103   11.1 
2025-08-05 00:00 UT   18 19 36.5   -11 42 51     1.494    2.369  140.9   15.7   103   11.1 
2025-08-06 00:00 UT   18 19 10.9   -11 43 48     1.501    2.369  139.9   16.0   102   11.1 


    Terminology:
            
    delta:  distance between minor planet and earth in AU
    radius: distance between minor planet and sun in AU
    magn:   magnitude (brightness) estimate    
    ra:     right ascension in hours (24h = 360deg)
    dec:    declination in degrees
    elong:  elongation in degrees (angle sun-earth-minor planet)    
    phase:  phase angle in degrees (angle sun-minor planet-earth)        
    AU:     Astronomical Unit (mean distance between earth and sun: 149597870.7 km
    

Orbital elements provided by the MPC (Minor Planet Center).
Calculations by a modified version of AAPlus, a C# implementation of the AA+ project by PJ Naughter from the algorithms presented in the book "Astronomical Algorithms" by Jean Meeus.
NGC2000 dso catalog and star labels from VizieR as provided by the Strasbourg astronomical Data Center.
Tycho2 catalog from the ESO archive.